| time (UTC) | temp F | wind direction | speed MPH | gust MPH | rain 1hr in | rain 24hr in | rain mn in | humidity % | barometer mb |
| 20260506221418 | 64 | 315 | 7.0 | 11.0 | 0.00 | 0.00 | 0.00 | 82 | 1020.7 |
| 20260506220412 | 64 | 261 | 7.0 | 13.0 | 0.00 | 0.00 | 0.00 | 83 | 1020.9 |
| 20260506215425 | 64 | 277 | 3.0 | 12.0 | 0.00 | 0.00 | 0.00 | 84 | 1021.0 |
| 20260506214424 | 64 | 305 | 3.0 | 12.0 | 0.00 | 0.00 | 0.00 | 85 | 1021.0 |
| 20260506213418 | 64 | 261 | 5.0 | 14.0 | 0.00 | 0.00 | 0.00 | 84 | 1021.2 |
| 20260506212432 | 64 | 312 | 6.0 | 13.0 | 0.00 | 0.00 | 0.00 | 83 | 1021.1 |
| 20260506211425 | 65 | 259 | 3.0 | 10.0 | 0.00 | 0.00 | 0.00 | 83 | 1021.3 |
| 20260506210423 | 65 | 295 | 4.0 | 12.0 | 0.00 | 0.00 | 0.00 | 84 | 1021.2 |
| 20260506205413 | 65 | 282 | 5.0 | 9.0 | 0.00 | 0.00 | 0.00 | 83 | 1021.3 |
| 20260506204426 | 66 | 288 | 3.0 | 10.0 | 0.00 | 0.00 | 0.00 | 84 | 1021.3 |
| 20260506203425 | 66 | 284 | 3.0 | 9.0 | 0.00 | 0.00 | 0.00 | 83 | 1021.4 |
| 20260506202441 | 65 | 319 | 4.0 | 9.0 | 0.00 | 0.00 | 0.00 | 82 | 1021.3 |
| 20260506201432 | 66 | 298 | 3.0 | 8.0 | 0.00 | 0.00 | 0.00 | 84 | 1021.4 |
| 20260506200423 | 66 | 312 | 2.0 | 10.0 | 0.00 | 0.00 | 0.00 | 84 | 1021.4 |
| 20260506195419 | 65 | 292 | 5.0 | 10.0 | 0.00 | 0.00 | 0.00 | 83 | 1021.6 |
| 20260506194431 | 65 | 282 | 3.0 | 10.0 | 0.00 | 0.00 | 0.00 | 85 | 1021.7 |
| 20260506193445 | 65 | 317 | 5.0 | 11.0 | 0.00 | 0.00 | 0.00 | 83 | 1021.8 |
| 20260506192415 | 66 | 286 | 3.0 | 9.0 | 0.00 | 0.00 | 0.00 | 82 | 1021.8 |
| 20260506105415 | 53 | 309 | 0.0 | 0.0 | 0.00 | 0.00 | 0.00 | 95 | 1020.7 |
| 20260506104430 | 53 | 309 | 0.0 | 1.0 | 0.00 | 0.00 | 0.00 | 95 | 1020.5 |
| 20260506103423 | 53 | 309 | 0.0 | 0.0 | 0.00 | 0.00 | 0.00 | 95 | 1020.4 |
| 20260506102417 | 53 | 309 | 0.0 | 1.0 | 0.00 | 0.00 | 0.00 | 95 | 1020.4 |
| 20260506101413 | 53 | 309 | 0.0 | 0.0 | 0.00 | 0.00 | 0.00 | 95 | 1020.3 |
| 20260506100428 | 53 | 309 | 0.0 | 0.0 | 0.00 | 0.00 | 0.00 | 95 | 1020.4 |
| 20260506095420 | 53 | 309 | 0.0 | 1.0 | 0.00 | 0.00 | 0.00 | 95 | 1020.3 |
| 20260506094417 | 53 | 309 | 0.0 | 0.0 | 0.00 | 0.00 | 0.00 | 95 | 1020.3 |
| 20260506093430 | 53 | 309 | 0.0 | 0.0 | 0.00 | 0.00 | 0.00 | 95 | 1020.3 |
| 20260506092425 | 53 | 309 | 0.0 | 1.0 | 0.00 | 0.00 | 0.00 | 95 | 1020.4 |
| 20260506091418 | 53 | 309 | 0.0 | 1.0 | 0.00 | 0.00 | 0.00 | 95 | 1020.4 |
| 20260506090417 | 53 | 309 | 0.0 | 1.0 | 0.00 | 0.00 | 0.00 | 95 | 1020.5 |
| 20260506085429 | 53 | 309 | 0.0 | 0.0 | 0.00 | 0.00 | 0.00 | 95 | 1020.5 |
| 20260506084422 | 53 | 309 | 0.0 | 0.0 | 0.00 | 0.00 | 0.00 | 95 | 1020.4 |
| 20260506083420 | 53 | 309 | 0.0 | 0.0 | 0.00 | 0.00 | 0.00 | 95 | 1020.5 |
| 20260506082433 | 54 | 309 | 0.0 | 1.0 | 0.00 | 0.00 | 0.00 | 95 | 1020.4 |
| 20260506081426 | 54 | 309 | 0.0 | 0.0 | 0.00 | 0.00 | 0.00 | 95 | 1020.4 |
| 20260506080420 | 53 | 309 | 0.0 | 0.0 | 0.00 | 0.00 | 0.00 | 95 | 1020.4 |
| 20260506073422 | 53 | 296 | 0.0 | 1.0 | 0.00 | 0.03 | 0.00 | 95 | 1020.1 |
| 20260506072421 | 53 | 265 | 0.0 | 2.0 | 0.00 | 0.03 | 0.00 | 95 | 1020.0 |
| 20260506071435 | 53 | 306 | 1.0 | 2.0 | 0.00 | 0.03 | 0.00 | 95 | 1019.8 |
| 20260506070428 | 53 | 305 | 0.0 | 1.0 | 0.00 | 0.03 | 0.00 | 95 | 1019.8 |
| 20260506062424 | 53 | 299 | 0.0 | 1.0 | 0.00 | 0.16 | 0.03 | 95 | 1019.7 |
| 20260506061417 | 54 | 299 | 0.0 | 1.0 | 0.00 | 0.16 | 0.03 | 95 | 1019.6 |
| 20260506060415 | 54 | 299 | 0.0 | 2.0 | 0.00 | 0.16 | 0.03 | 95 | 1019.6 |
| 20260506050418 | 54 | 284 | 0.0 | 1.0 | 0.00 | 0.18 | 0.03 | 95 | 1019.3 |
| 20260506044425 | 54 | 291 | 0.0 | 2.0 | 0.00 | 0.21 | 0.03 | 94 | 1019.0 |
| 20260506043418 | 54 | 277 | 0.0 | 2.0 | 0.00 | 0.21 | 0.03 | 94 | 1018.9 |
| 20260506042431 | 54 | 285 | 0.0 | 2.0 | 0.00 | 0.21 | 0.03 | 94 | 1018.9 |
| 20260506041428 | 54 | 285 | 0.0 | 2.0 | 0.00 | 0.21 | 0.03 | 94 | 1018.7 |
| 20260506040420 | 54 | 298 | 0.0 | 2.0 | 0.00 | 0.21 | 0.03 | 94 | 1018.6 |
| 20260506035431 | 54 | 291 | 0.0 | 2.0 | 0.00 | 0.25 | 0.03 | 94 | 1018.4 |
| 20260506034425 | 54 | 277 | 0.0 | 3.0 | 0.00 | 0.25 | 0.03 | 94 | 1018.4 |
| 20260506033422 | 54 | 296 | 0.0 | 2.0 | 0.00 | 0.25 | 0.03 | 94 | 1018.2 |
| 20260506032417 | 54 | 298 | 1.0 | 4.0 | 0.00 | 0.25 | 0.03 | 94 | 1018.1 |
| 20260506031430 | 54 | 272 | 1.0 | 3.0 | 0.00 | 0.25 | 0.03 | 93 | 1017.8 |
| 20260506030425 | 55 | 272 | 0.0 | 2.0 | 0.00 | 0.25 | 0.03 | 92 | 1017.7 |
| 20260506025422 | 55 | 293 | 0.0 | 3.0 | 0.00 | 0.32 | 0.03 | 91 | 1017.7 |
| 20260506024436 | 56 | 319 | 0.0 | 4.0 | 0.00 | 0.32 | 0.03 | 92 | 1017.7 |
| 20260506023429 | 56 | 266 | 0.0 | 5.0 | 0.00 | 0.32 | 0.03 | 91 | 1017.5 |
| 20260506022424 | 57 | 298 | 1.0 | 4.0 | 0.00 | 0.32 | 0.03 | 89 | 1017.5 |
| 20260506021421 | 58 | 301 | 0.0 | 6.0 | 0.00 | 0.32 | 0.03 | 87 | 1017.4 |
| 20260506020414 | 58 | 272 | 1.0 | 5.0 | 0.00 | 0.32 | 0.03 | 89 | 1017.1 |
| 20260506015446 | 57 | 302 | 2.0 | 6.0 | 0.00 | 0.40 | 0.03 | 90 | 1017.1 |
| 20260506014423 | 57 | 305 | 1.0 | 5.0 | 0.00 | 0.40 | 0.03 | 89 | 1017.0 |
| 20260506013417 | 57 | 308 | 1.0 | 7.0 | 0.00 | 0.40 | 0.03 | 88 | 1017.0 |
| 20260506012432 | 57 | 322 | 3.0 | 7.0 | 0.00 | 0.40 | 0.03 | 87 | 1016.9 |
| 20260506011445 | 57 | 268 | 4.0 | 9.0 | 0.00 | 0.40 | 0.03 | 85 | 1016.9 |
| 20260506010423 | 58 | 318 | 6.0 | 10.0 | 0.00 | 0.40 | 0.03 | 84 | 1016.9 |
| 20260506005415 | 58 | 308 | 5.0 | 10.0 | 0.00 | 0.48 | 0.03 | 84 | 1016.9 |
| 20260506004448 | 59 | 316 | 4.0 | 9.0 | 0.00 | 0.48 | 0.03 | 83 | 1016.8 |
| 20260506003441 | 59 | 312 | 3.0 | 8.0 | 0.00 | 0.48 | 0.03 | 84 | 1016.7 |
| 20260506002419 | 59 | 272 | 5.0 | 8.0 | 0.00 | 0.48 | 0.03 | 83 | 1016.7 |
| 20260506001433 | 60 | 282 | 1.0 | 14.0 | 0.00 | 0.48 | 0.03 | 82 | 1016.7 |
| 20260506000427 | 60 | 297 | 5.0 | 13.0 | 0.00 | 0.48 | 0.03 | 83 | 1016.6 |
| 20260505235438 | 60 | 323 | 5.0 | 12.0 | 0.00 | 0.53 | 0.03 | 82 | 1016.6 |
| 20260505234416 | 61 | 300 | 2.0 | 14.0 | 0.00 | 0.53 | 0.03 | 84 | 1016.6 |
| 20260505233431 | 61 | 319 | 2.0 | 8.0 | 0.00 | 0.53 | 0.03 | 81 | 1016.7 |
| 20260505232424 | 61 | 319 | 4.0 | 11.0 | 0.00 | 0.53 | 0.03 | 79 | 1016.6 |
| 20260505231422 | 61 | 330 | 7.0 | 12.0 | 0.00 | 0.53 | 0.03 | 79 | 1016.7 |
| 20260505230436 | 62 | 251 | 3.0 | 10.0 | 0.00 | 0.53 | 0.03 | 81 | 1016.5 |
| 20260505225428 | 62 | 268 | 4.0 | 10.0 | 0.00 | 0.54 | 0.03 | 79 | 1016.5 |
| 20260505224421 | 62 | 310 | 4.0 | 12.0 | 0.00 | 0.54 | 0.03 | 81 | 1016.6 |
| 20260505223420 | 63 | 296 | 2.0 | 10.0 | 0.00 | 0.54 | 0.03 | 79 | 1016.7 |
| 20260505222433 | 63 | 262 | 3.0 | 15.0 | 0.00 | 0.54 | 0.03 | 81 | 1016.6 |